Weather History for Moline, IL

Change the Weather History Date:

Friday, September 21, 2012

  Actual Average Record
Temperature  
Mean Temperature 53 °F 63 °F  
Max Temperature 64 °F 75 °F 92 °F (1940)
Min Temperature 42 °F 51 °F 32 °F (1991)
Degree Days  
Heating Degree Days 12 4  
Month to date heating degree days 65 43  
Since 1 July heating degree days 68 51  
Cooling Degree Days 0 2  
Month to date cooling degree days 81 91  
Year to date cooling degree days 1200 974  
Growing Degree Days 3 (Base 50)    
Moisture  
Dew Point 44 °F    
Average Humidity 73    
Maximum Humidity 93    
Minimum Humidity 52    
Precipitation  
Precipitation 0.01 in 0.11 in 3.32 in (1947)
Month to date precipitation 2.19 2.24  
Year to date precipitation 20.23 29.40  
Snow  
Snow 0.00 in 0.00 in - ()
Month to date snowfall T 0.0  
Since 1 July snowfall T 0.0  
Since 1 September snowfall T 0.0  
Snow Depth 0.00 in    
Sea Level Pressure  
Sea Level Pressure 29.88 in    
Wind  
Wind Speed 6 mph (ENE)    
Max Wind Speed 20 mph    
Max Gust Speed 24 mph    
Visibility 10 miles    
Events      
T = Trace of Precipitation, MM = Missing Value Source: NWS Daily Summary

Daily Weather History Graph

Daily Weather History Graph

Search for Another Location

Airport:

Trip Planner

Search our weather history database for the weather conditions in past years. The results will help you decide how hot, cold, wet, or windy it might be!

Date:

Astronomy

Sep. 21, 2012 Rise Set
Actual Time 6:48 AM CDT 7:00 PM CDT
Civil Twilight 6:21 AM CDT 7:27 PM CDT
Nautical Twilight 5:48 AM CDT 8:00 PM CDT
Astronomical Twilight 5:15 AM CDT 8:33 PM CDT
Moon 1:14 PM CDT (9/21) 10:56 PM CDT (9/21)
Length of Visible Light 13h 06m
Length of Day
12h 11m
Waxing Crescent, 37% of the Moon is Illuminated
Sep 21
Waxing Crescent
Sep 22
First Quarter
Sep 29
Full
Oct 8
Last Quarter
Oct 15
New

Hourly Weather History & Observations

Time (CDT) Temp. Dew Point Humidity Pressure Visibility Wind Dir Wind Speed Gust Speed Precip Events Conditions
12:52 AM 48.0 °F 43.0 °F 83% 29.95 in 10.0 mi Calm Calm - N/A   Clear
1:52 AM 48.9 °F 42.1 °F 77% 29.94 in 10.0 mi Calm Calm - N/A   Clear
2:52 AM 48.9 °F 41.0 °F 74% 29.94 in 10.0 mi Calm Calm - N/A   Clear
3:52 AM 46.0 °F 41.0 °F 83% 29.92 in 10.0 mi Calm Calm - N/A   Clear
4:52 AM 44.1 °F 39.9 °F 85% 29.92 in 10.0 mi Calm Calm - N/A   Clear
5:52 AM 44.1 °F 39.9 °F 85% 29.91 in 10.0 mi Calm Calm - N/A   Clear
6:52 AM 46.0 °F 42.1 °F 86% 29.91 in 10.0 mi Calm Calm - N/A   Mostly Cloudy
7:52 AM 48.9 °F 45.0 °F 86% 29.90 in 10.0 mi ENE 3.5 mph - N/A   Mostly Cloudy
8:52 AM 51.1 °F 46.0 °F 83% 29.92 in 10.0 mi Variable 4.6 mph - 0.01 in   Overcast
9:52 AM 55.0 °F 46.0 °F 72% 29.93 in 10.0 mi East 4.6 mph - N/A   Scattered Clouds
10:52 AM 55.9 °F 46.0 °F 69% 29.92 in 10.0 mi ENE 9.2 mph - 0.00 in   Overcast
11:52 AM 55.9 °F 46.9 °F 72% 29.88 in 10.0 mi ENE 11.5 mph - 0.00 in   Overcast
12:52 PM 60.1 °F 46.9 °F 62% 29.83 in 10.0 mi East 13.8 mph - N/A   Partly Cloudy
1:52 PM 64.0 °F 46.0 °F 52% 29.79 in 10.0 mi ENE 17.3 mph - N/A   Partly Cloudy
2:52 PM 60.1 °F 48.9 °F 67% 29.79 in 10.0 mi ENE 17.3 mph - 0.00 in   Partly Cloudy
3:52 PM 59.0 °F 48.9 °F 69% 29.79 in 10.0 mi ENE 17.3 mph 23.0 mph N/A   Overcast
4:52 PM 57.9 °F 46.9 °F 67% 29.79 in 10.0 mi ENE 13.8 mph - N/A   Overcast
5:52 PM 57.0 °F 46.9 °F 69% 29.82 in 10.0 mi NE 9.2 mph - N/A   Clear
6:52 PM 54.0 °F 45.0 °F 72% 29.85 in 10.0 mi NNE 8.1 mph - N/A   Partly Cloudy
7:52 PM 48.9 °F 44.1 °F 83% 29.85 in 10.0 mi South 3.5 mph - N/A   Clear
8:52 PM 48.0 °F 44.1 °F 86% 29.87 in 10.0 mi Calm Calm - N/A   Clear
9:52 PM 45.0 °F 43.0 °F 93% 29.87 in 10.0 mi Calm Calm - N/A   Clear
10:52 PM 45.0 °F 43.0 °F 93% 29.86 in 10.0 mi Calm Calm - N/A   Clear
11:52 PM 46.9 °F 44.1 °F 90% 29.86 in 10.0 mi West 3.5 mph - N/A   Mostly Cloudy